Location: Fredericksburg
(30.2750°N, 98.8720°W)
Time: 02:33:11
(UTC-05:00)

Daily predictions for brighter satellites

Satellite Brightness Start Highest point End
(mag) Time Altitude Azimuth Time Altitude Azimuth Time Altitude Azimuth
Cosmos 2263 Rocket 3.9 04:42:06 24° SE 04:43:37 27° ESE 04:48:17 10° NE
Cosmos 1655 Rocket 4.2 04:46:18 10° N 04:52:35 69° E 04:53:00 67° ESE
Cosmos 1140 Rocket 4.4 04:55:04 46° NE 04:55:04 46° NE 04:58:53 10° NNE
Okean O Rocket 3.4 04:53:50 10° NE 04:57:31 27° E 04:57:53 27° ESE
ASTEX 1 4.2 04:55:26 10° NNE 04:59:44 50° ENE 04:59:44 50° ENE
ADEOS II 2.3 05:00:34 10° NNE 05:05:07 65° NE 05:05:07 65° NE
Cosmos 1428 Rocket 4.3 05:03:05 10° N 05:09:14 89° W 05:09:47 76° S
GOES 2 Rocket 4.3 05:11:05 35° ESE 05:11:05 35° ESE 05:13:52 10° E
OAO 3 Rocket 4.0 05:11:21 44° ESE 05:11:21 44° ESE 05:14:34 10° ESE
CZ-4B R/B 4.2 05:12:39 10° NNE 05:17:39 42° E 05:22:37 10° S
DELTA 2 R/B (1) 4.4 05:17:51 38° NNW 05:18:04 38° NNW 05:23:16 10° NE
CZ-4B R/B 4.0 05:14:44 10° NNE 05:17:34 41° NE 05:17:34 41° NE
Okean 1 Rocket 3.9 05:16:53 10° N 05:20:03 45° NNE 05:20:03 45° NNE
Palapa 6 Rocket 4.4 05:26:21 41° S 05:26:56 42° S 05:33:27 10° ESE
Cosmos 614 Rocket 4.0 05:28:45 61° NW 05:28:45 61° NW 05:33:18 10° N
MOS 1-B 4.2 05:23:06 10° N 05:28:48 62° WNW 05:29:11 61° W
Meteor 2-9 4.5 05:24:41 10° NNW 05:30:07 71° W 05:31:40 47° SSW
Cosmos 220 Rocket 4.4 05:31:40 49° SSE 05:32:30 60° ESE 05:36:43 10° NNE
Atlas Centaur 2 2.1 05:35:07 53° SSW 05:35:58 60° SSE 05:40:38 10° E
Meteor 1-5 Rocket 4.4 05:37:02 10° NNW 05:42:47 52° W 05:48:31 10° SSW
H-2A R/B 3.8 04:41:49 10° W 05:44:06 79° S 05:49:31 10° ESE
Meteor 1-31 Rocket 3.9 05:42:07 10° NNE 05:45:48 43° E 05:49:28 10° S
Cosmos 1607 3.9 05:45:59 36° SW 05:48:36 70° WNW 05:54:55 10° NNE
CZ-4B DEB 4.1 05:43:25 10° N 05:48:53 83° WNW 05:53:45 13° SSW
Cosmos 1603 3.5 05:45:40 10° NNW 05:51:18 76° WSW 05:56:57 10° SSE
Cosmos 1975 Rocket 3.1 05:54:57 43° SW 05:56:01 54° W 06:00:23 10° N
PSLV R/B 4.2 05:58:04 10° N 06:01:41 34° WNW 06:01:41 34° WNW
Landsat 4 4.4 05:58:56 10° SSE 06:02:39 57° ENE 06:06:24 10° N
ASC 2 Rocket 4.0 06:03:54 26° SSW 06:05:10 32° S 06:08:59 10° ESE
PAYLOAD B 4.4 06:01:40 10° N 06:06:58 51° WNW 06:11:39 13° SW
Cosmos 1455 Rocket 4.0 06:05:49 10° N 06:10:00 49° E 06:14:11 10° SSE
Cosmos 1741 Rocket 4.3 06:08:00 25° SW 06:10:38 44° WNW 06:15:38 10° N
ATLAS 3B R/B 3.2 06:04:37 10° SSW 06:12:04 70° ESE 06:19:17 10° NE
Cosmos 1743 3.9 06:11:18 10° N 06:15:04 46° E 06:18:49 10° SSE
Cosmos 1437 Rocket 2.7 06:13:50 10° NNW 06:17:44 66° W 06:21:41 10° S
Cosmos 1943 3.2 06:12:43 10° NNW 06:18:26 89° WSW 06:24:05 10° SSE
Cosmos 1844 Rocket 4.2 06:15:33 10° S 06:20:42 38° ESE 06:25:53 10° NE
Cosmos 1536 Rocket 3.6 06:17:00 10° S 06:21:17 78° E 06:25:37 10° N
GPS 2-05 Rocket1 3.9 06:24:01 16° NW 06:25:56 31° N 06:28:43 10° ENE
Cosmos 2263 Rocket 3.0 06:23:52 17° WSW 06:27:19 32° WNW 06:32:22 10° N
SEDSat Delta rocket 3.5 06:24:58 17° W 06:29:25 72° SSW 06:34:26 10° ESE
Intelsat 5-2 Rocket 4.0 06:29:21 16° SW 06:31:21 32° S 06:36:33 10° ESE
Nadezhda 2 Rocket 4.5 06:26:00 10° N 06:32:19 69° W 06:38:30 10° S
S3M 4.3 06:26:17 10° S 06:32:26 71° E 06:38:42 10° N
Okean O Rocket 3.0 06:30:38 10° NNW 06:33:40 19° WNW 06:35:20 15° W
Meteor 1-28 Rocket 3.6 06:32:25 10° SSE 06:36:06 67° ENE 06:39:48 10° N
ISS -3.7 06:33:12 10° NW 06:36:30 79° NE 06:39:46 10° SE
Skynet4D Del rocket 4.2 06:32:10 13° WSW 06:36:56 46° SSE 06:42:02 10° E
Meteor 1-19 Rocket 4.3 06:31:12 10° SSW 06:37:03 70° W 06:42:54 10° N
USA 215 4.5 06:32:29 10° ESE 06:38:32 42° NE 06:44:35 10° NNW
Meteor 2-4 Rocket 3.6 06:42:35 10° S 06:48:02 80° W 06:53:39 10° N
Cosmos 1975 3.7 06:44:34 10° NNW 06:48:08 29° W 06:51:40 10° SSW
NOSS 3-2 (A) 4.3 06:46:14 10° S 06:51:51 52° ESE 06:57:51 10° NE
NOAA 6 4.0 06:46:43 10° N 06:51:52 68° WNW 06:57:00 10° SSW
Cosmos 332 Rocket 3.7 06:47:08 10° NNW 06:51:56 83° WSW 06:56:43 10° SSE
OAO 3 Rocket 4.3 06:49:12 10° W 06:53:07 27° SSW 06:57:03 10° SSE
CZ-3 Stage 3 3.2 06:55:08 10° WSW 06:58:23 61° SSE 07:10:03 10° ENE
Cosmos 371 Rocket 3.3 06:53:46 10° NNW 06:58:39 86° WSW 07:03:29 10° SSE
Cosmos 1570 Rocket 4.4 06:55:10 10° NNW 07:00:05 40° W 07:05:02 10° S
CZ-2C R/B 3.2 06:56:58 10° NNE 07:01:27 53° E 07:06:00 10° S
Cosmos 2208 Rocket 4.3 06:57:16 10° NNW 07:02:14 43° W 07:07:07 10° S
CZ-3 R/B 2.1 06:53:58 10° WSW 07:09:38 71° S 07:13:59 10° E
